This is the latest recevied weather packets stored in our database for station/object HF3P-11. If no packets are shown the sender has not sent any weather packets the latest 10 day(s).
| Time | Temp. | Humidity | Pressure | Rain* | Wind** | Luminosity | Snow |
|---|---|---|---|---|---|---|---|
| 1787978401 | 17.22° C | 99% | 1003.4 hPa | 1.78 mm | - | - | - |
| 1787978092 | 17.22° C | 99% | 1003.4 hPa | 1.78 mm | - | - | - |
| 1787977801 | 17.22° C | 99% | 1003.4 hPa | 2.03 mm | - | - | - |
| 1787977492 | 17.22° C | 99% | 1003.6 hPa | 2.29 mm | - | - | - |
| 1787977201 | 17.22° C | 99% | 1003.7 hPa | 2.29 mm | - | - | - |
| 1787976893 | 17.22° C | 99% | 1003.9 hPa | 2.29 mm | - | - | - |
| 1787976601 | 17.22° C | 99% | 1004 hPa | 2.03 mm | - | - | - |
| 1787976293 | 17.22° C | 99% | 1004 hPa | 1.78 mm | - | - | - |
| 1787976002 | 17.22° C | 99% | 1004 hPa | 1.78 mm | - | - | - |
| 1787975692 | 17.22° C | 99% | 1004.1 hPa | 2.03 mm | - | - | - |
| 1787975401 | 17.78° C | 99% | 1004.1 hPa | 2.03 mm | - | - | - |
| 1787975092 | 17.78° C | 99% | 1003.8 hPa | 2.03 mm | - | - | - |
| 1787974801 | 17.78° C | 99% | 1004 hPa | 2.03 mm | - | - | - |
| 1787974493 | 17.78° C | 99% | 1003.8 hPa | 2.29 mm | - | - | - |
| 1787974202 | 17.78° C | 99% | 1003.9 hPa | 2.79 mm | - | - | - |
| 1787973893 | 17.78° C | 99% | 1004 hPa | 3.3 mm | - | - | - |
| 1787973602 | 17.78° C | 99% | 1003.7 hPa | 3.56 mm | - | - | - |
| 1787973293 | 17.78° C | 99% | 1003.7 hPa | 3.81 mm | - | - | - |
| 1787973002 | 17.78° C | 99% | 1003.8 hPa | 3.81 mm | - | - | - |
| 1787972692 | 18.33° C | 99% | 1003.9 hPa | 4.32 mm | - | - | - |
| 1787972402 | 18.33° C | 99% | 1003.8 hPa | 4.32 mm | - | - | - |
| 1787972092 | 18.33° C | 99% | 1003.6 hPa | 4.32 mm | - | - | - |
| 1787971801 | 18.89° C | 99% | 1003.5 hPa | 3.81 mm | - | - | - |
| 1787971492 | 18.33° C | 99% | 1003.4 hPa | 3.56 mm | - | - | - |
| 1787971201 | 18.89° C | 99% | 1003.5 hPa | 3.56 mm | - | - | - |
* Rain latest hour (hover to see other rain measurements)
** Current wind speed in m/s (hover to see current wind gust speed)